Regional Weather Roundup
Issued by NWS Charleston, SC

Current Version | Previous Version | Graphics & Text | Print | Product List | Glossary On
Versions: 1 2 3 4 5 6 7 8 9 10 11 12 13 14 15 16 17 18 19 20 21 22 23 24 25 26 27 28 29 30 31 32 33 34 35 36 37 38 39 40 41 42 43 44 45 46 47 48 49 50
000
ASUS42 KCHS 291613
RWRCHS

REGIONAL WEATHER ROUNDUP
NATIONAL WEATHER SERVICE CHARLESTON SC
1200 PM EDT SUN MAY 29 2016

NOTE: "FAIR" INDICATES FEW OR NO CLOUDS BELOW 12,000 FEET WITH NO
SIGNIFICANT WEATHER AND/OR OBSTRUCTIONS TO VISIBILITY.

NOT ALL STATIONS ARE QUALITY CONTROLLED. USE DATA WITH CAUTION...
ESPECIALLY DEWPOINT OBSERVATIONS.

SCZ027-030-031-034>040-042>050-291700-
...SOUTHEAST SOUTH CAROLINA...

CITY           SKY/WX    TMP DP  RH WIND       PRES   REMARKS
N CHARLESTON   LGT RAIN  76  73  91 S13       29.89R FOG
WATERFRONT PRK   N/A     75  73  93 S8        29.89R
MOUNT PLEASANT FAIR      75  73  94 S8        29.92R FOG
JOHNS ISLAND   CLOUDY    77  75  94 S9        29.91S
PINOPOLIS        N/A     79  73  83 E12       29.82R
MONCKS CORNER  CLOUDY    73  70  88 E13G22    29.89R FOG
SUMMERVILLE    CLOUDY    73  73 100 E16G25    29.83R
BEAUFORT MCAS  CLOUDY    69  67  93 W14G22    29.96R
BEAUFORT ARPT  CLOUDY    70  68  94 W20       29.96R FOG
HILTON HEAD IS DRIZZLE   68  66  94 W12       29.98S
WALTERBORO     HVY RAIN  72  72 100 W15G23    29.90F
ALLENDALE      LGT RAIN  68  66  94 N8G15     30.00R

...SOUTHERN MIDLANDS AND PEE DEE...

CITY           SKY/WX    TMP DP  RH WIND       PRES   REMARKS
GEORGETOWN     CLOUDY    77  72  83 SE10G17   29.97R
KINGSTREE      CLOUDY    79  72  78 NE7       29.95R
ORANGEBURG     LGT RAIN  70  67  90 N12G26    29.95F FOG
BARNWELL       HVY RAIN  70  70 100 NW16G25   30.02S
AIKEN          CLOUDY    66  61  82 NW15G25   30.10S
MANNING        HVY RAIN  73  72  94 N7        29.93F
COLUMBIA       LGT RAIN  68  64  87 NW13      30.04S FOG
SUMTER         CLOUDY    73  71  92 N17       29.97S
FLORENCE       PTSUNNY   81  73  76 NE15      30.00S
MYRTLE BEACH   PTSUNNY   82  70  65 SE12      30.00F
N MYRTLE BEACH CLOUDY    80  73  79 E12G18    30.00F

$$

GAZ063-065-086>088-099>101-113>116-118-119-134>141-150-291700-
...SOUTHEAST GEORGIA...

CITY           SKY/WX    TMP DP  RH WIND       PRES   REMARKS
SAVANNAH ARPT  LGT RAIN  70  66  87 NW22G32   30.02R
HUNTER AAF     MOSUNNY   70  70 100 W13G23    30.00R
FORT STEWART   RAIN      71  67  88 NW15G25   30.05R
STATESBORO     TSTM      65  64  97 N16       30.08S
SYLVANIA       TSTM      67  64  92 NW21G28   30.06R
CLAXTON        RAIN      67  66  97 W13       30.09R

...CSRA...CENTRAL AND FAR SOUTHEAST GEORGIA...

CITY           SKY/WX    TMP DP  RH WIND       PRES   REMARKS
THOMSON        CLOUDY    69  69  98 NE7       30.19R
AUGUSTA-BUSH   LGT RAIN  67  63  87 N14       30.09S
AUGUSTA-DANIEL CLOUDY    68  62  81 NW9G18    30.11S
SWAINSBORO     DRIZZLE   68  64  88 N8        30.11S
VIDALIA        CLOUDY    72  64  78 N9G21     30.11R
EASTMAN        PTSUNNY   82  65  58 NE8       30.14S
HAZLEHURST     FAIR      80  62  54 N12G18    30.11R
ALMA           MOSUNNY   81  63  54 NW13G18   30.10S
WAYCROSS       CLOUDY    80  66  62 NW10      30.10S
JESUP          PTSUNNY   73  61  64 N12G21    30.09R
BAXLEY         FAIR      81  61  50 NW17G25   30.10S
BRUNSWICK      PTSUNNY   82  66  57 W14G21    30.07F
SAINT SIMONS   MOSUNNY   80  66  62 NW15G22   30.05F

$$

SCZ027-028-034-036>038-045-046-048>050-GAZ119-141-291700-
...LAKE AND SUPPLEMENTAL COASTAL OBSERVATIONS...

STATION/POSITION TIME  TEMP    WIND        PRES    WAVE   SWELL
                       AIR SEA DIR/SP/G            HT/PER HT/PER/DIR
                 (UTC) (F)     (DEG/KT/KT) (MB)    (FT/S) (FT/S/D)
WINYAH BAY       NOT AVBL
LAKE MURRAY      1500   67     350/  7/ 17 1017.9S
ACE BASIN NERRS  NOT AVBL
FORT PULASKI     1500   69 75  300/ 22/ 28 1015.7R
SAPELO ISLAND    1500   77     300/ 16     1018.0R

$$

ANZ835-935-AMZ111-154-330-350-352-354-370-450-454-472-291700-
...C-MAN AND BUOY OBSERVATIONS...

STATION/POSITION TIME  TEMP    WIND        PRES    WAVE   SWELL
                       AIR SEA DIR/SP/G            HT/PER HT/PER/DIR
                 (UTC) (F)     (DEG/KT/KT) (MB)    (FT/S) (FT/S/D)
BUOY 41004       1550   74 77  190/ 19/ 23 1013.8F   6/ 8   3/ 8
BUOY 41008       1550   76 76  290/ 25/ 29 1015.8F   4/ 5   2/ 80/ 8
FOLLY BEACH CMAN 1600   75     190/ 10/ 12 1013.2R
CAPERS NEARSHORE 1508   75 76  190/ 14/ 19 1012.7R
FRIPP NEARSHORE  1508   71 76  290/ 19/ 25 1012.8F


STATION/POSITION TIME  TEMP    WIND        PRES    WAVE   SWELL
                       AIR SEA DIR/SP/G            HT/PER HT/PER/DIR
                 (UTC) (F)     (DEG/KT/KT) (MB)    (FT/S) (FT/S/D)
5E ST. MARYS GA  1601      78                N/A     3/ 8
FRYING PAN BUOY  1500   79 78  140/ 17/ 23 1016.1R
BUOY 41025       1550   79 76  160/ 17/ 19 1019.3S   6/ 8   2/180/13
CAPE LOOKOUT NC  1500   76     150/ 11/ 12 1018.3R
BUOY 41002       1550   76 76  130/ 16/ 17 1019.3F   4/ 7   2/100/ 8
BUOY 41010       1520   79 79  290/  8/ 10 1018.4R
ST AUGUSTINE FL  1600   82 79  310/ 11/ 14 1019.3F


$$




USA.gov is the U.S. government's official web portal to all federal, state and local government web resources and services.